Location: Berlise
(49.6641°N, 4.1077°E)
Time: 00:37:13
(UTC+00:00)

Cosmos 1939 Rocket - Pass Details

Date: 27 January 2021
Orbit: 531 x 585 km, 97.4° (Epoch: 28 February)

Event Time Altitude Azimuth Distance (km) Brightness Sun altitude
Rises 06:37:20 0° 13° (NNE) 2,721 6.3 -7.5°
Reaches altitude 10° 06:39:29 10° 15° (NNE) 1,816 5.4 -7.2°
Maximum altitude 06:43:25 80° 103° (ESE) 552 3.0 -6.6°
Drops below altitude 10° 06:47:15 10° 190° (S) 1,781 5.6 -6.0°
Sets 06:49:21 0° 192° (SSW) 2,664 6.5 -5.7°
